Terminal Aerodrome Forecast
Issued by NWS Quad Cities IA IL

Home | Current Version | Previous Version | Text Only | Print | Product List | Glossary On
Versions: 1 2 3 4 5 6 7 8 9 10 11 12 13 14 15 16 17 18 19 20 21 22 23 24 25 26
817
FTUS43 KDVN 281120
TAFMLI
TAF
KMLI 281120Z 2812/2912 VRB03KT P6SM SCT009
     FM281500 13007KT P6SM SCT025
     FM290900 08003KT 3SM BR SCT250=

USA.gov is the U.S. government's official web portal to all federal, state and local government web resources and services.